Time,TemperatureF,DewpointF,PressureIn,WindDirection,WindDirectionDegrees,WindSpeedMPH,WindSpeedGustMPH,Humidity,HourlyPrecipIn,Conditions,Clouds,dailyrainin,SoftwareType,DateUTC
2013-01-13 00:06:00,37.0,35.4,29.99,NE,38,4.0,5.0,94,0.00,,,0.00,Wunderground v.1.15,2013-01-13 00:06:00,
2013-01-13 00:15:00,36.9,35.3,29.99,NNE,27,4.0,4.0,94,0.00,,,0.00,Wunderground v.1.15,2013-01-13 00:15:00,
2013-01-13 00:25:00,36.7,35.1,30.00,North,10,5.0,8.0,94,0.00,,,0.00,Wunderground v.1.15,2013-01-13 00:25:00,
2013-01-13 00:35:00,36.6,35.0,30.00,NNE,19,6.0,6.0,94,0.00,,,0.00,Wunderground v.1.15,2013-01-13 00:35:00,
2013-01-13 00:45:00,36.4,34.8,30.00,NNE,18,2.0,3.0,94,0.00,,,0.00,Wunderground v.1.15,2013-01-13 00:45:00,
2013-01-13 00:50:00,36.3,34.7,30.00,NNE,18,1.0,2.0,94,0.00,,,0.00,Wunderground v.1.15,2013-01-13 00:50:00,
2013-01-13 01:00:00,36.1,34.5,30.00,NNE,30,3.0,3.0,94,0.00,,,0.00,Wunderground v.1.15,2013-01-13 01:00:00,
2013-01-13 01:10:00,35.9,34.3,30.00,NNE,25,3.0,5.0,94,0.00,,,0.00,Wunderground v.1.15,2013-01-13 01:10:00,
2013-01-13 01:20:00,35.7,34.1,30.01,NNE,20,3.0,4.0,94,0.00,,,0.00,Wunderground v.1.15,2013-01-13 01:20:00,
2013-01-13 01:25:00,35.6,34.0,30.01,NNE,20,3.0,4.0,94,0.00,,,0.00,Wunderground v.1.15,2013-01-13 01:25:00,
2013-01-13 01:35:00,35.3,33.7,30.03,NNE,18,2.0,3.0,94,0.00,,,0.00,Wunderground v.1.15,2013-01-13 01:35:00,
2013-01-13 01:45:00,35.1,33.5,30.03,North,360,2.0,4.0,94,0.00,,,0.00,Wunderground v.1.15,2013-01-13 01:45:00,
2013-01-13 01:55:00,35.1,33.5,30.04,NNW,329,4.0,5.0,94,0.00,,,0.00,Wunderground v.1.15,2013-01-13 01:55:00,
2013-01-13 02:00:00,35.1,33.5,30.04,NNW,343,4.0,5.0,94,0.00,,,0.00,Wunderground v.1.15,2013-01-13 02:00:00,
2013-01-13 02:05:00,35.2,33.9,30.05,NNW,330,5.0,5.0,95,0.00,,,0.00,Wunderground v.1.15,2013-01-13 02:05:00,
2013-01-13 02:15:00,35.1,33.8,30.05,North,350,5.0,7.0,95,0.00,,,0.00,Wunderground v.1.15,2013-01-13 02:15:00,
2013-01-13 02:25:00,35.0,33.7,30.05,North,349,4.0,4.0,95,0.00,,,0.00,Wunderground v.1.15,2013-01-13 02:25:00,
2013-01-13 02:30:00,34.9,33.6,30.05,North,349,2.0,2.0,95,0.00,,,0.00,Wunderground v.1.15,2013-01-13 02:30:00,
2013-01-13 02:40:00,34.8,33.5,30.05,North,360,3.0,4.0,95,0.00,,,0.00,Wunderground v.1.15,2013-01-13 02:40:00,
2013-01-13 02:50:00,34.7,33.4,30.06,NNW,346,4.0,4.0,95,0.00,,,0.00,Wunderground v.1.15,2013-01-13 02:50:00,
2013-01-13 03:00:00,34.7,33.4,30.06,NNW,330,4.0,4.0,95,0.00,,,0.00,Wunderground v.1.15,2013-01-13 03:00:00,
2013-01-13 03:05:00,34.6,33.3,30.06,NNW,338,4.0,5.0,95,0.00,,,0.00,Wunderground v.1.15,2013-01-13 03:05:00,
2013-01-13 03:15:00,34.5,33.2,30.06,NNW,338,3.0,4.0,95,0.00,,,0.00,Wunderground v.1.15,2013-01-13 03:15:00,
2013-01-13 03:20:00,34.5,33.2,30.06,NNW,347,3.0,3.0,95,0.00,,,0.00,Wunderground v.1.15,2013-01-13 03:20:00,
2013-01-13 03:30:00,34.6,33.3,30.06,North,9,3.0,3.0,95,0.00,,,0.00,Wunderground v.1.15,2013-01-13 03:30:00,
2013-01-13 03:35:00,34.6,33.6,30.07,North,360,4.0,4.0,96,0.00,,,0.00,Wunderground v.1.15,2013-01-13 03:35:00,
2013-01-13 03:45:00,34.5,33.5,30.07,NNE,17,4.0,6.0,96,0.00,,,0.00,Wunderground v.1.15,2013-01-13 03:45:00,
2013-01-13 03:55:00,34.6,33.6,30.07,North,360,6.0,7.0,96,0.00,,,0.00,Wunderground v.1.15,2013-01-13 03:55:00,
2013-01-13 04:05:00,34.4,33.4,30.07,North,355,5.0,7.0,96,0.00,,,0.00,Wunderground v.1.15,2013-01-13 04:05:00,
2013-01-13 04:15:00,34.4,33.4,30.07,North,350,5.0,7.0,96,0.00,,,0.00,Wunderground v.1.15,2013-01-13 04:15:00,
2013-01-13 04:25:00,34.4,33.4,30.07,NNW,333,6.0,6.0,96,0.00,,,0.00,Wunderground v.1.15,2013-01-13 04:25:00,
2013-01-13 04:30:00,34.3,33.3,30.07,NNW,345,6.0,6.0,96,0.00,,,0.00,Wunderground v.1.15,2013-01-13 04:30:00,
2013-01-13 04:40:00,34.4,33.4,30.07,NNW,336,7.0,7.0,96,0.00,,,0.00,Wunderground v.1.15,2013-01-13 04:40:00,
2013-01-13 04:45:00,34.3,33.3,30.07,NNW,336,6.0,7.0,96,0.00,,,0.00,Wunderground v.1.15,2013-01-13 04:45:00,
2013-01-13 04:55:00,34.1,33.1,30.08,NNW,338,6.0,6.0,96,0.00,,,0.00,Wunderground v.1.15,2013-01-13 04:55:00,
2013-01-13 05:05:00,34.0,33.0,30.08,NNW,330,6.0,7.0,96,0.00,,,0.00,Wunderground v.1.15,2013-01-13 05:05:00,
2013-01-13 05:10:00,33.9,32.9,30.08,NNW,338,6.0,9.0,96,0.00,,,0.00,Wunderground v.1.15,2013-01-13 05:10:00,
2013-01-13 05:15:00,33.8,32.8,30.08,NNW,338,5.0,9.0,96,0.00,,,0.00,Wunderground v.1.15,2013-01-13 05:15:00,
2013-01-13 05:20:00,33.8,32.8,30.09,NNW,338,6.0,6.0,96,0.00,,,0.00,Wunderground v.1.15,2013-01-13 05:20:00,
2013-01-13 05:25:00,33.7,32.7,30.09,NNW,333,6.0,6.0,96,0.00,,,0.00,Wunderground v.1.15,2013-01-13 05:25:00,
2013-01-13 05:35:00,34.1,33.1,30.09,NNW,330,9.0,9.0,96,0.00,,,0.00,Wunderground v.1.15,2013-01-13 05:35:00,
2013-01-13 05:45:00,34.3,33.3,30.09,NW,326,8.0,9.0,96,0.00,,,0.00,Wunderground v.1.15,2013-01-13 05:45:00,
2013-01-13 05:50:00,34.4,33.4,30.09,NNW,327,8.0,10.0,96,0.00,,,0.00,Wunderground v.1.15,2013-01-13 05:50:00,
2013-01-13 06:00:00,34.4,33.4,30.09,NNW,337,6.0,6.0,96,0.00,,,0.00,Wunderground v.1.15,2013-01-13 06:00:00,
2013-01-13 06:05:00,34.3,33.3,30.09,NNW,340,5.0,7.0,96,0.00,,,0.00,Wunderground v.1.15,2013-01-13 06:05:00,
2013-01-13 06:15:00,34.2,33.2,30.09,NNW,341,5.0,5.0,96,0.00,,,0.00,Wunderground v.1.15,2013-01-13 06:15:00,
2013-01-13 06:20:00,34.2,33.2,30.09,NNW,343,5.0,5.0,96,0.00,,,0.00,Wunderground v.1.15,2013-01-13 06:20:00,
2013-01-13 06:30:00,34.3,33.3,30.09,NNW,338,5.0,5.0,96,0.00,,,0.00,Wunderground v.1.15,2013-01-13 06:30:00,
2013-01-13 06:35:00,34.3,33.3,30.10,NNW,345,5.0,5.0,96,0.00,,,0.00,Wunderground v.1.15,2013-01-13 06:35:00,
2013-01-13 06:45:00,34.3,33.3,30.10,North,360,5.0,6.0,96,0.00,,,0.00,Wunderground v.1.15,2013-01-13 06:45:00,
2013-01-13 06:55:00,34.3,33.3,30.10,North,351,5.0,5.0,96,0.00,,,0.00,Wunderground v.1.15,2013-01-13 06:55:00,
2013-01-13 07:05:00,34.3,33.3,30.10,North,350,3.0,4.0,96,0.00,,,0.00,Wunderground v.1.15,2013-01-13 07:05:00,
2013-01-13 07:15:00,34.2,33.2,30.10,North,349,0.0,1.0,96,0.00,,,0.00,Wunderground v.1.15,2013-01-13 07:15:00,
2013-01-13 07:20:00,34.1,33.1,30.10,North,350,0.0,0.0,96,0.00,,,0.00,Wunderground v.1.15,2013-01-13 07:20:00,
2013-01-13 07:30:00,33.8,32.8,30.10,North,349,1.0,1.0,96,0.00,,,0.00,Wunderground v.1.15,2013-01-13 07:30:00,
2013-01-13 07:40:00,33.6,32.6,30.11,North,350,1.0,1.0,96,0.00,,,0.00,Wunderground v.1.15,2013-01-13 07:40:00,
2013-01-13 07:50:00,33.5,32.5,30.11,North,349,0.0,0.0,96,0.00,,,0.00,Wunderground v.1.15,2013-01-13 07:50:00,
2013-01-13 08:00:00,33.4,32.4,30.11,North,350,0.0,0.0,96,0.00,,,0.00,Wunderground v.1.15,2013-01-13 08:00:00,
2013-01-13 08:05:00,33.3,32.3,30.12,North,350,0.0,3.0,96,0.00,,,0.00,Wunderground v.1.15,2013-01-13 08:05:00,
2013-01-13 08:15:00,33.2,32.2,30.12,North,350,2.0,2.0,96,0.00,,,0.00,Wunderground v.1.15,2013-01-13 08:15:00,
2013-01-13 08:25:00,33.2,32.2,30.13,North,350,1.0,2.0,96,0.00,,,0.00,Wunderground v.1.15,2013-01-13 08:25:00,
2013-01-13 08:30:00,33.1,32.1,30.13,North,349,0.0,0.0,96,0.00,,,0.00,Wunderground v.1.15,2013-01-13 08:30:00,
2013-01-13 08:40:00,33.0,32.0,30.13,North,350,0.0,0.0,96,0.00,,,0.00,Wunderground v.1.15,2013-01-13 08:40:00,
2013-01-13 08:50:00,33.0,32.0,30.13,North,350,1.0,1.0,96,0.00,,,0.00,Wunderground v.1.15,2013-01-13 08:50:00,
2013-01-13 09:00:00,33.6,32.6,30.13,NW,315,5.0,5.0,96,0.00,,,0.00,Wunderground v.1.15,2013-01-13 09:00:00,
2013-01-13 09:05:00,34.0,33.0,30.14,NNW,331,5.0,5.0,96,0.00,,,0.00,Wunderground v.1.15,2013-01-13 09:05:00,
2013-01-13 09:15:00,34.3,33.5,30.14,NW,306,4.0,6.0,97,0.00,,,0.00,Wunderground v.1.15,2013-01-13 09:15:00,
2013-01-13 09:25:00,34.4,33.6,30.14,NW,306,4.0,4.0,97,0.00,,,0.00,Wunderground v.1.15,2013-01-13 09:25:00,
2013-01-13 09:35:00,34.4,33.6,30.14,NW,306,2.0,3.0,97,0.00,,,0.00,Wunderground v.1.15,2013-01-13 09:35:00,
2013-01-13 09:45:00,34.5,33.5,30.14,NW,306,0.0,1.0,96,0.00,,,0.01,Wunderground v.1.15,2013-01-13 09:45:00,
2013-01-13 09:55:00,34.5,33.5,30.14,NW,306,0.0,0.0,96,0.00,,,0.01,Wunderground v.1.15,2013-01-13 09:55:00,
2013-01-13 10:05:00,34.7,33.9,30.14,NW,306,0.0,0.0,97,0.00,,,0.01,Wunderground v.1.15,2013-01-13 10:05:00,
2013-01-13 10:15:00,35.0,34.2,30.14,NW,306,1.0,2.0,97,0.00,,,0.01,Wunderground v.1.15,2013-01-13 10:15:00,
2013-01-13 10:25:00,35.1,34.3,30.14,NW,306,0.0,1.0,97,0.00,,,0.01,Wunderground v.1.15,2013-01-13 10:25:00,
2013-01-13 10:30:00,35.2,34.4,30.14,NW,306,0.0,0.0,97,0.00,,,0.01,Wunderground v.1.15,2013-01-13 10:30:00,
2013-01-13 10:40:00,35.2,34.4,30.15,West,276,0.0,0.0,97,0.00,,,0.01,Wunderground v.1.15,2013-01-13 10:40:00,
2013-01-13 10:50:00,35.4,34.6,30.15,West,277,0.0,0.0,97,0.00,,,0.01,Wunderground v.1.15,2013-01-13 10:50:00,
2013-01-13 11:00:00,36.0,35.2,30.15,West,276,0.0,0.0,97,0.00,,,0.01,Wunderground v.1.15,2013-01-13 11:00:00,
2013-01-13 11:05:00,36.4,35.6,30.15,West,276,0.0,2.0,97,0.00,,,0.01,Wunderground v.1.15,2013-01-13 11:05:00,
2013-01-13 11:15:00,37.1,36.3,30.15,West,276,1.0,1.0,97,0.00,,,0.01,Wunderground v.1.15,2013-01-13 11:15:00,
2013-01-13 11:25:00,37.6,36.8,30.15,West,277,1.0,2.0,97,0.00,,,0.01,Wunderground v.1.15,2013-01-13 11:25:00,
2013-01-13 11:35:00,37.9,37.1,30.15,West,277,1.0,3.0,97,0.00,,,0.01,Wunderground v.1.15,2013-01-13 11:35:00,
2013-01-13 11:45:00,38.2,37.4,30.15,West,277,1.0,1.0,97,0.00,,,0.01,Wunderground v.1.15,2013-01-13 11:45:00,
2013-01-13 11:55:00,38.6,37.8,30.14,West,276,0.0,1.0,97,0.00,,,0.01,Wunderground v.1.15,2013-01-13 11:55:00,
2013-01-13 12:05:00,39.3,38.5,30.14,West,276,1.0,1.0,97,0.00,,,0.01,Wunderground v.1.15,2013-01-13 12:05:00,
2013-01-13 12:15:00,39.5,38.7,30.14,West,275,1.0,2.0,97,0.00,,,0.01,Wunderground v.1.15,2013-01-13 12:15:00,
2013-01-13 12:25:00,40.0,39.2,30.14,SSW,202,2.0,3.0,97,0.00,,,0.01,Wunderground v.1.15,2013-01-13 12:25:00,
2013-01-13 12:35:00,40.3,39.5,30.13,SSW,208,3.0,4.0,97,0.00,,,0.01,Wunderground v.1.15,2013-01-13 12:35:00,
2013-01-13 12:40:00,40.4,39.6,30.13,SSW,206,2.0,5.0,97,0.00,,,0.01,Wunderground v.1.15,2013-01-13 12:40:00,
2013-01-13 12:50:00,40.6,39.8,30.13,SSW,207,3.0,4.0,97,0.00,,,0.01,Wunderground v.1.15,2013-01-13 12:50:00,
2013-01-13 13:00:00,40.9,40.1,30.13,SSW,209,3.0,4.0,97,0.00,,,0.01,Wunderground v.1.15,2013-01-13 13:00:00,
2013-01-13 13:05:00,40.8,40.0,30.13,SSW,207,3.0,4.0,97,0.00,,,0.01,Wunderground v.1.15,2013-01-13 13:05:00,
2013-01-13 13:15:00,40.9,39.8,30.13,SW,222,3.0,4.0,96,0.00,,,0.01,Wunderground v.1.15,2013-01-13 13:15:00,
2013-01-13 13:25:00,41.0,39.9,30.13,SSW,192,3.0,4.0,96,0.00,,,0.01,Wunderground v.1.15,2013-01-13 13:25:00,
2013-01-13 13:35:00,41.3,40.2,30.13,SW,219,3.0,4.0,96,0.00,,,0.01,Wunderground v.1.15,2013-01-13 13:35:00,
2013-01-13 13:45:00,41.4,40.3,30.13,SW,229,4.0,4.0,96,0.00,,,0.01,Wunderground v.1.15,2013-01-13 13:45:00,
2013-01-13 13:55:00,41.4,40.3,30.13,SW,229,3.0,4.0,96,0.00,,,0.01,Wunderground v.1.15,2013-01-13 13:55:00,
2013-01-13 14:05:00,41.7,40.6,30.13,West,261,4.0,6.0,96,0.00,,,0.01,Wunderground v.1.15,2013-01-13 14:05:00,
2013-01-13 14:15:00,42.1,41.0,30.13,West,267,5.0,6.0,96,0.00,,,0.01,Wunderground v.1.15,2013-01-13 14:15:00,
2013-01-13 14:20:00,42.3,41.2,30.13,West,279,4.0,5.0,96,0.00,,,0.01,Wunderground v.1.15,2013-01-13 14:20:00,
2013-01-13 14:30:00,42.5,41.4,30.13,West,273,5.0,5.0,96,0.00,,,0.01,Wunderground v.1.15,2013-01-13 14:30:00,
2013-01-13 14:35:00,42.7,41.6,30.12,West,262,4.0,5.0,96,0.00,,,0.01,Wunderground v.1.15,2013-01-13 14:35:00,
2013-01-13 14:45:00,43.1,42.0,30.12,WNW,298,6.0,7.0,96,0.00,,,0.01,Wunderground v.1.15,2013-01-13 14:45:00,
2013-01-13 14:55:00,43.2,42.1,30.13,WNW,299,5.0,7.0,96,0.00,,,0.01,Wunderground v.1.15,2013-01-13 14:55:00,
2013-01-13 15:00:00,43.3,42.2,30.13,NW,310,6.0,6.0,96,0.00,,,0.01,Wunderground v.1.15,2013-01-13 15:00:00,
2013-01-13 15:05:00,43.2,42.1,30.13,NW,307,6.0,6.0,96,0.00,,,0.01,Wunderground v.1.15,2013-01-13 15:05:00,
2013-01-13 15:15:00,43.2,42.1,30.13,WNW,296,5.0,6.0,96,0.00,,,0.01,Wunderground v.1.15,2013-01-13 15:15:00,
2013-01-13 15:25:00,43.3,42.2,30.13,WNW,290,5.0,5.0,96,0.00,,,0.01,Wunderground v.1.15,2013-01-13 15:25:00,
2013-01-13 15:30:00,43.3,42.2,30.13,WNW,293,5.0,5.0,96,0.00,,,0.01,Wunderground v.1.15,2013-01-13 15:30:00,
2013-01-13 15:40:00,43.3,42.2,30.13,WNW,298,5.0,5.0,96,0.00,,,0.01,Wunderground v.1.15,2013-01-13 15:40:00,
2013-01-13 15:50:00,43.4,42.3,30.13,WNW,298,5.0,5.0,96,0.00,,,0.01,Wunderground v.1.15,2013-01-13 15:50:00,
2013-01-13 15:55:00,43.3,42.2,30.13,WNW,302,5.0,6.0,96,0.00,,,0.01,Wunderground v.1.15,2013-01-13 15:55:00,
2013-01-13 16:05:00,43.2,42.1,30.13,NW,304,5.0,5.0,96,0.00,,,0.01,Wunderground v.1.15,2013-01-13 16:05:00,
2013-01-13 16:15:00,43.0,41.9,30.13,WNW,303,4.0,4.0,96,0.00,,,0.01,Wunderground v.1.15,2013-01-13 16:15:00,
2013-01-13 16:25:00,42.7,41.6,30.14,WNW,303,4.0,5.0,96,0.00,,,0.01,Wunderground v.1.15,2013-01-13 16:25:00,
2013-01-13 16:35:00,42.4,41.3,30.14,WNW,303,4.0,5.0,96,0.00,,,0.01,Wunderground v.1.15,2013-01-13 16:35:00,
2013-01-13 16:45:00,42.1,41.0,30.14,WNW,303,3.0,3.0,96,0.00,,,0.01,Wunderground v.1.15,2013-01-13 16:45:00,
2013-01-13 16:50:00,41.9,40.8,30.14,WNW,303,3.0,5.0,96,0.00,,,0.01,Wunderground v.1.15,2013-01-13 16:50:00,
2013-01-13 17:00:00,41.5,40.4,30.14,NW,318,3.0,3.0,96,0.00,,,0.01,Wunderground v.1.15,2013-01-13 17:00:00,
2013-01-13 17:05:00,41.3,40.2,30.14,NW,318,3.0,4.0,96,0.00,,,0.01,Wunderground v.1.15,2013-01-13 17:05:00,
2013-01-13 17:15:00,41.0,39.9,30.14,NW,317,3.0,4.0,96,0.00,,,0.01,Wunderground v.1.15,2013-01-13 17:15:00,
2013-01-13 17:20:00,41.0,39.9,30.14,NW,316,3.0,3.0,96,0.00,,,0.01,Wunderground v.1.15,2013-01-13 17:20:00,
2013-01-13 17:30:00,41.0,39.9,30.14,WNW,300,5.0,5.0,96,0.00,,,0.01,Wunderground v.1.15,2013-01-13 17:30:00,
2013-01-13 17:40:00,41.3,40.2,30.14,NW,310,7.0,9.0,96,0.00,,,0.01,Wunderground v.1.15,2013-01-13 17:40:00,
2013-01-13 17:45:00,41.5,40.4,30.14,NW,304,9.0,9.0,96,0.00,,,0.01,Wunderground v.1.15,2013-01-13 17:45:00,
2013-01-13 17:55:00,41.5,40.4,30.14,WNW,300,8.0,8.0,96,0.00,,,0.02,Wunderground v.1.15,2013-01-13 17:55:00,
2013-01-13 18:05:00,41.4,40.3,30.14,WNW,298,7.0,8.0,96,0.00,,,0.02,Wunderground v.1.15,2013-01-13 18:05:00,
2013-01-13 18:15:00,41.4,40.3,30.14,WNW,302,7.0,7.0,96,0.00,,,0.02,Wunderground v.1.15,2013-01-13 18:15:00,
2013-01-13 18:20:00,41.4,40.3,30.15,NW,309,6.0,6.0,96,0.00,,,0.02,Wunderground v.1.15,2013-01-13 18:20:00,
2013-01-13 18:30:00,41.1,40.0,30.15,WNW,295,7.0,7.0,96,0.00,,,0.02,Wunderground v.1.15,2013-01-13 18:30:00,
2013-01-13 18:40:00,41.2,40.1,30.15,NW,304,8.0,14.0,96,0.00,,,0.02,Wunderground v.1.15,2013-01-13 18:40:00,
2013-01-13 18:45:00,41.3,40.2,30.15,WNW,302,9.0,14.0,96,0.00,,,0.02,Wunderground v.1.15,2013-01-13 18:45:00,
2013-01-13 18:55:00,41.2,40.1,30.15,WNW,299,10.0,12.0,96,0.00,,,0.02,Wunderground v.1.15,2013-01-13 18:55:00,
2013-01-13 19:05:00,41.1,40.0,30.15,NW,304,8.0,9.0,96,0.00,,,0.02,Wunderground v.1.15,2013-01-13 19:05:00,
2013-01-13 19:15:00,40.8,39.7,30.15,WNW,295,6.0,7.0,96,0.00,,,0.02,Wunderground v.1.15,2013-01-13 19:15:00,
2013-01-13 19:20:00,40.6,39.5,30.15,NW,309,6.0,6.0,96,0.00,,,0.02,Wunderground v.1.15,2013-01-13 19:20:00,
2013-01-13 19:30:00,40.2,39.2,30.15,NW,306,5.0,5.0,96,0.00,,,0.02,Wunderground v.1.15,2013-01-13 19:30:00,
2013-01-13 19:40:00,39.9,38.9,30.15,WNW,298,5.0,5.0,96,0.00,,,0.02,Wunderground v.1.15,2013-01-13 19:40:00,
2013-01-13 19:50:00,39.6,38.6,30.15,WNW,302,5.0,5.0,96,0.00,,,0.02,Wunderground v.1.15,2013-01-13 19:50:00,
2013-01-13 20:00:00,39.4,38.4,30.15,WNW,292,5.0,5.0,96,0.00,,,0.02,Wunderground v.1.15,2013-01-13 20:00:00,
2013-01-13 20:05:00,39.3,38.3,30.15,WNW,285,5.0,5.0,96,0.00,,,0.02,Wunderground v.1.15,2013-01-13 20:05:00,
2013-01-13 20:15:00,39.2,38.2,30.15,NW,311,5.0,5.0,96,0.00,,,0.02,Wunderground v.1.15,2013-01-13 20:15:00,
2013-01-13 20:25:00,39.1,38.1,30.14,WNW,300,4.0,4.0,96,0.00,,,0.02,Wunderground v.1.15,2013-01-13 20:25:00,
2013-01-13 20:35:00,39.0,38.0,30.14,WNW,301,4.0,5.0,96,0.00,,,0.02,Wunderground v.1.15,2013-01-13 20:35:00,
2013-01-13 20:40:00,38.9,37.9,30.14,WNW,301,4.0,4.0,96,0.00,,,0.02,Wunderground v.1.15,2013-01-13 20:40:00,
2013-01-13 20:50:00,38.9,37.9,30.13,WNW,298,5.0,5.0,96,0.00,,,0.02,Wunderground v.1.15,2013-01-13 20:50:00,
2013-01-13 20:55:00,38.9,37.9,30.13,WNW,290,6.0,7.0,96,0.00,,,0.02,Wunderground v.1.15,2013-01-13 20:55:00,
2013-01-13 21:05:00,38.9,37.9,30.13,WNW,297,8.0,9.0,96,0.00,,,0.02,Wunderground v.1.15,2013-01-13 21:05:00,
2013-01-13 21:15:00,38.9,37.9,30.13,WNW,303,9.0,9.0,96,0.00,,,0.02,Wunderground v.1.15,2013-01-13 21:15:00,
2013-01-13 21:25:00,38.8,37.8,30.13,WNW,294,8.0,8.0,96,0.00,,,0.02,Wunderground v.1.15,2013-01-13 21:25:00,
2013-01-13 21:35:00,38.6,37.6,30.13,WNW,299,7.0,7.0,96,0.00,,,0.02,Wunderground v.1.15,2013-01-13 21:35:00,
2013-01-13 21:45:00,38.6,37.6,30.13,WNW,294,8.0,8.0,96,0.00,,,0.02,Wunderground v.1.15,2013-01-13 21:45:00,
2013-01-13 21:55:00,38.6,37.6,30.13,WNW,300,7.0,8.0,96,0.00,,,0.02,Wunderground v.1.15,2013-01-13 21:55:00,
2013-01-13 22:05:00,38.6,37.6,30.13,WNW,295,7.0,8.0,96,0.00,,,0.02,Wunderground v.1.15,2013-01-13 22:05:00,
2013-01-13 22:10:00,38.6,37.6,30.13,WNW,299,7.0,9.0,96,0.00,,,0.02,Wunderground v.1.15,2013-01-13 22:10:00,
2013-01-13 22:20:00,38.8,38.0,30.13,WNW,298,7.0,9.0,97,0.00,,,0.02,Wunderground v.1.15,2013-01-13 22:20:00,
2013-01-13 22:30:00,39.1,38.3,30.13,WNW,300,8.0,8.0,97,0.00,,,0.02,Wunderground v.1.15,2013-01-13 22:30:00,
2013-01-13 22:35:00,39.1,38.3,30.13,WNW,290,8.0,8.0,97,0.00,,,0.02,Wunderground v.1.15,2013-01-13 22:35:00,
2013-01-13 22:45:00,39.1,38.3,30.13,WNW,298,7.0,8.0,97,0.00,,,0.02,Wunderground v.1.15,2013-01-13 22:45:00,
2013-01-13 22:55:00,39.1,38.3,30.13,NW,304,6.0,7.0,97,0.00,,,0.02,Wunderground v.1.15,2013-01-13 22:55:00,
2013-01-13 23:05:00,39.0,38.2,30.13,WNW,302,7.0,8.0,97,0.00,,,0.02,Wunderground v.1.15,2013-01-13 23:05:00,
2013-01-13 23:15:00,39.0,38.2,30.13,WNW,298,6.0,6.0,97,0.00,,,0.02,Wunderground v.1.15,2013-01-13 23:15:00,
2013-01-13 23:20:00,39.1,38.3,30.13,WNW,302,6.0,6.0,97,0.00,,,0.02,Wunderground v.1.15,2013-01-13 23:20:00,
2013-01-13 23:30:00,39.1,38.3,30.13,WNW,303,6.0,6.0,97,0.00,,,0.02,Wunderground v.1.15,2013-01-13 23:30:00,
2013-01-13 23:40:00,39.0,38.2,30.13,NW,306,6.0,6.0,97,0.00,,,0.02,Wunderground v.1.15,2013-01-13 23:40:00,
2013-01-13 23:45:00,39.1,38.3,30.13,NW,304,7.0,7.0,97,0.00,,,0.02,Wunderground v.1.15,2013-01-13 23:45:00,
2013-01-13 23:55:00,39.2,38.4,30.13,WNW,291,7.0,7.0,97,0.00,,,0.02,Wunderground v.1.15,2013-01-13 23:55:00,